This is the latest recevied weather packets stored in our database for station/object KO4ZGL-13. If no packets are shown the sender has not sent any weather packets the latest 10 day(s).
| Time | Temp. | Humidity | Pressure | Rain* | Wind** | Luminosity | Snow |
|---|---|---|---|---|---|---|---|
| 1787961357 | 24.44° C | 99% | 1017.3 hPa | 0 mm | - | 0 W/m² | - |
| 1787961051 | 24.44° C | 99% | 1017.5 hPa | 0 mm | - | 0 W/m² | - |
| 1787960751 | 24.44° C | 99% | 1017.5 hPa | 0 mm | - | 0 W/m² | - |
| 1787960445 | 24.44° C | 99% | 1017.5 hPa | 0 mm | - | 2 W/m² | - |
| 1787960140 | 25° C | 99% | 1017.5 hPa | 0 mm | - | 3 W/m² | - |
| 1787959839 | 25° C | 99% | 1017.6 hPa | 0 mm | - | 6 W/m² | - |
| 1787959535 | 25° C | 99% | 1017.6 hPa | 0 mm | - | 7 W/m² | - |
| 1787959234 | 25° C | 99% | 1017.5 hPa | 0 mm | - | 8 W/m² | - |
| 1787958929 | 25° C | 99% | 1017.5 hPa | 0 mm | - | 8 W/m² | - |
| 1787958624 | 25° C | 98% | 1017.8 hPa | 0 mm | - | 7 W/m² | - |
| 1787958320 | 25° C | 98% | 1017.6 hPa | 0 mm | - | 8 W/m² | - |
| 1787958016 | 25° C | 98% | 1017.5 hPa | 0 mm | - | 9 W/m² | - |
| 1787957714 | 25.56° C | 98% | 1017.3 hPa | 0 mm | - | 13 W/m² | - |
| 1787957409 | 25.56° C | 98% | 1017.5 hPa | 0 mm | - | 16 W/m² | - |
| 1787957109 | 25.56° C | 98% | 1017.3 hPa | 0 mm | - | 19 W/m² | - |
| 1787956803 | 25.56° C | 98% | 1017.5 hPa | 0 mm | - | 22 W/m² | - |
| 1787956498 | 25.56° C | 98% | 1017.4 hPa | 0 mm | - | 22 W/m² | - |
| 1787956193 | 26.11° C | 98% | 1017.3 hPa | 0 mm | - | 20 W/m² | - |
| 1787955893 | 26.11° C | 98% | 1017.4 hPa | 0 mm | - | 20 W/m² | - |
| 1787955588 | 26.11° C | 98% | 1017.3 hPa | 0 mm | - | 22 W/m² | - |
| 1787955283 | 26.11° C | 98% | 1017.4 hPa | 0 mm | - | 23 W/m² | - |
| 1787954978 | 26.11° C | 98% | 1017.4 hPa | 0 mm | - | 25 W/m² | - |
| 1787954674 | 26.11° C | 97% | 1017.3 hPa | 0 mm | - | 26 W/m² | - |
| 1787954373 | 26.11° C | 97% | 1017.2 hPa | 0 mm | - | 27 W/m² | - |
| 1787954069 | 26.11° C | 97% | 1017.3 hPa | 0 mm | - | 34 W/m² | - |
* Rain latest hour (hover to see other rain measurements)
** Current wind speed in m/s (hover to see current wind gust speed)